Location: Molveno
(46.1500°N, 10.9667°E)
Time: 16:51:05
(UTC+00:00)

Cosmos 1633 - Pass Details

Date: 05 July 2020
Orbit: 462 x 482 km, 82.5° (Epoch: 11 August)

Event Time Altitude Azimuth Distance (km) Brightness Sun altitude
Exits shadow 23:01:04 38° 89° (E) 748 3.4 -21.0°
Drops below altitude 10° 23:04:23 10° 24° (NNE) 1,665 6.1 -21.1°
Sets 23:06:34 0° 17° (NNE) 2,546 7.5 -21.1°
